Temp
46 46 45 44 44 45 46 46 46 47 47 47 47 47 48 48 49 49 41 46 49 42 40 46 47 42 44 47 39 41 40 39 40 37 39 38 37 39 36 39 37 36 33 32 33 30 25 36 34 30 33 38 39 39
45 46 45 44 44 44 44 46 46 46 46 47 47 47 48 49 49 50 44 46 52 48 43 48 46 48 52 51 45 43 42 43 45 41 43 42 37 39 39 30 42 32 37 34 32 30 34 34 33 37 41 37 38 39
46 45 44 44 45 46 46 45 45 46 47 47 47 48 49 49 50 51 46 52 53 44 46 48 43 49 51 50 54 43 44 44 43 47 44 42 36 45 35 36 36 37 41 34 32 31 32 32 34 37 40 38 40 41
45 45 45 45 46 46 47 47 47 47 47 48 48 48 48 48 49 52 48 49 54 49 37 39 50 45 50 53 52 52 46 46 47 50 44 42 39 44 36 38 39 39 39 34 29 31 32 32 33 35 36 37 37 39
45 44 45 46 46 46 46 47 47 47 47 48 48 48 48 48 49 51 50 47 50 48 37 38 46 47 51 52 50 51 49 48 48 44 42 40 45 42 42 41 36 40 36 33 31 33 33 32 33 34 34 35 36 35
45 44 44 45 46 46 46 46 47 47 47 47 48 48 47 47 48 55 39 52 53 57 43 35 43 44 48 50 48 47 48 47 50 47 43 46 44 44 36 33 36 37 39 40 34 36 33 33 33 37 35 36 36 35
45 45 45 45 45 46 46 46 46 47 47 47 47 47 47 48 49 43 42 47 47 52 42 37 36 43 47 48 46 47 48 47 49 46 45 46 44 45 37 31 37 36 39 40 40 37 31 34 33 37 36 35 34 34
45 46 46 46 46 46 46 46 46 47 47 47 47 47 47 48 49 45 47 46 49 46 47 35 33 38 46 42 41 46 45 48 46 45 45 44 44 43 32 37 40 40 40 40 40 40 40 38 37 35 36 35 33 32
45 45 45 45 46 46 46 46 47 47 46 46 46 47 50 45 43 45 45 47 49 47 37 37 34 30 45 41 43 44 47 37 45 41 43 44 39 32 36 38 40 41 40 38 39 39 38 36 35 34 34 34 32 30
45 45 45 45 45 45 46 46 46 46 46 46 48 43 33 41 44 46 47 41 41 42 43 36 42 33 43 40 38 39 42 37 34 40 44 38 38 37 41 44 44 43 42 41 36 34 35 34 34 32 32 32 30 28
45 46 45 45 45 45 45 45 45 46 46 44 36 34 43 44 46 42 33 35 37 34 40 39 41 36 44 37 35 40 36 38 32 35 35 34 34 35 38 42 44 45 43 43 43 41 40 38 34 31 29 29 28 26
46 46 46 45 45 45 46 46 45 45 42 43 42 44 44 40 36 32 30 33 34 31 36 36 38 39 38 45 38 38 33 35 28 37 33 30 35 37 37 37 41 42 41 40 41 39 38 36 35 32 30 28 26 23
45 45 45 45 45 45 45 44 44 43 44 46 41 34 38 34 28 27 23 27 28 33 35 37 33 40 41 40 34 36 29 30 36 30 31 36 35 37 38 37 36 37 37 37 35 36 35 33 32 29 24 22 20 18
45 45 45 45 45 45 45 44 44 44 43 35 32 26 29 27 29 30 31 32 32 35 37 37 33 38 37 34 33 29 32 35 28 26 29 36 32 33 35 35 32 28 28 28 28 27 24 22 20 20 20 19 19 17
45 45 45 44 45 44 44 43 43 44 38 32 34 25 28 31 32 32 33 34 35 39 39 37 37 40 34 30 34 32 28 27 30 32 35 34 32 31 30 30 28 26 24 24 24 22 19 18 19 18 18 21 21 18
45 45 44 45 45 45 44 44 43 42 38 35 32 29 32 32 31 32 32 32 36 38 40 41 34 31 29 32 29 28 29 28 32 35 33 32 30 30 29 28 26 25 25 24 23 22 21 20 20 21 20 20 18 19
43 40 44 44 44 43 43 43 41 33 33 32 29 31 32 32 30 32 34 34 38 38 33 38 30 28 35 31 28 35 31 34 33 31 31 32 30 28 27 25 22 23 23 24 23 23 23 24 23 23 22 23 23 24
42 44 44 44 44 43 40 40 37 34 28 30 30 30 32 32 33 32 34 37 39 39 39 35 39 30 30 28 31 35 34 30 29 29 30 29 29 28 28 26 23 24 24 23 23 23 23 22 25 27 28 28 28 28
44 45 44 43 43 41 36 35 37 29 29 31 32 33 32 33 34 34 35 37 41 44 42 39 33 34 34 36 35 33 32 32 30 28 27 26 28 26 25 25 24 25 24 24 25 28 28 28 31 32 32 31 31 30
43 42 42 42 44 39 34 32 39 34 29 30 33 32 33 33 35 34 34 35 36 41 37 35 35 36 37 36 38 36 35 34 32 30 27 27 28 25 26 26 28 27 26 27 28 28 29 29 31 31 32 30 29 27
43 42 42 42 40 39 35 34 32 33 32 31 32 35 33 36 35 34 36 39 36 37 37 38 36 35 33 33 35 37 34 35 35 37 33 28 28 30 28 29 28 29 29 29 28 28 27 30 31 31 28 26 26 26
41 41 41 40 35 34 34 36 33 34 32 31 33 35 32 31 32 34 38 36 37 37 38 39 38 33 35 34 34 35 33 33 30 29 29 28 27 28 29 29 29 28 29 29 30 28 29 30 29 28 25 23 23 22
41 42 38 37 31 30 28 36 30 33 28 28 32 30 30 31 34 38 33 37 35 33 35 37 36 37 35 33 34 34 34 34 33 31 29 32 32 31 30 30 31 29 28 29 31 30 28 24 23 23 22 22 22 20
40 32 28 27 30 25 31 28 33 32 31 29 28 25 28 30 34 32 30 34 33 34 34 33 36 33 33 32 33 32 31 33 30 29 30 30 29 29 31 31 31 32 32 30 29 26 24 23 19 21 20 19 17 17
31 26 28 23 28 26 25 25 25 28 25 26 25 26 28 32 28 27 27 31 31 30 30 33 34 35 35 32 31 30 30 33 31 28 29 32 30 29 28 29 29 28 29 26 24 23 21 20 20 18 17 17 15 12
23 24 25 25 25 25 26 22 22 24 26 25 26 29 29 28 23 25 29 29 28 29 28 30 31 32 31 32 30 30 30 33 33 29 28 30 30 29 26 24 24 23 27 28 25 22 19 18 17 15 12 9 6 10
22 22 26 31 30 29 27 27 28 27 24 25 27 26 26 22 23 27 28 28 28 28 29 31 32 33 33 29 27 27 29 30 30 29 28 27 27 30 30 27 26 25 25 24 24 22 19 17 15 13 9 8 6 6
27 26 22 25 26 28 23 25 25 25 28 29 28 24 24 25 26 27 28 27 27 28 28 26 25 30 30 28 26 24 23 21 21 22 23 22 21 21 22 22 21 19 21 21 20 19 18 16 13 12 10 6 1 1
24 27 27 21 23 24 25 25 27 29 28 29 28 28 26 25 25 26 27 26 26 28 28 26 23 24 23 24 24 25 24 25 24 22 22 20 19 17 19 19 19 18 17 15 13 14 12 11 9 7 5 2 -1 -1
24 28 26 21 20 23 28 29 28 25 26 26 26 25 25 24 24 24 24 26 26 27 27 26 24 25 23 23 20 20 23 24 25 26 24 22 21 17 17 17 17 17 17 16 12 8 7 5 3 2 1 0 1 0
28 27 25 26 25 25 25 23 23 23 24 24 21 24 26 23 23 22 22 21 23 24 23 22 22 23 23 22 23 21 20 20 18 20 22 19 17 18 17 17 17 17 14 12 10 8 6 5 3 1 -1 -3 -6 -3
26 25 24 21 22 22 23 24 24 23 21 21 22 19 20 21 22 20 17 18 22 22 20 23 22 22 23 23 21 21 20 18 17 17 18 17 17 15 15 15 15 14 12 9 8 6 4 3 2 0 -2 -4 -6 -7
22 23 21 21 19 19 21 22 21 19 18 19 19 18 20 21 19 17 18 16 17 20 21 19 18 18 17 17 16 16 16 16 15 14 13 13 13 13 13 13 12 10 8 6 4 2 1 -1 -2 -3 -5 -7 -8 -9
MSLP
996.29 996.69 996.95 997.12 996.88 996.43 996.14 996.12 995.79 996.17 996.93 997.90 999.01 1000.11 1001.20 1002.01 1002.58 1002.88 1005.31 1005.49 1005.29 1006.93 1009.48 1009.55 1010.03 1010.51 1010.83 1010.88 1011.73 1013.51 1014.35 1014.76 1014.42 1013.72 1012.94 1012.87 1012.65 1013.06 1013.67 1014.03 1014.38 1014.58 1015.03 1015.35 1016.19 1016.79 1018.22 1019.51 1019.61 1019.74 1020.15 1020.37 1020.77 1021.31
996.65 996.90 997.19 997.58 997.71 997.68 997.51 997.60 997.88 998.07 998.53 999.20 1000.00 1000.79 1001.35 1001.75 1002.22 1002.98 1004.52 1005.48 1005.73 1006.53 1009.71 1010.44 1011.19 1011.35 1010.87 1011.04 1011.82 1013.19 1013.23 1013.29 1013.43 1013.19 1013.15 1013.06 1013.09 1013.51 1013.45 1014.09 1015.01 1015.37 1015.75 1016.14 1017.85 1018.62 1019.93 1020.57 1020.48 1020.55 1020.59 1021.06 1021.37 1021.89
996.95 997.45 997.95 998.24 998.25 997.91 998.43 998.80 999.42 999.77 1000.30 1000.87 1001.35 1001.98 1002.35 1002.59 1002.62 1002.85 1004.75 1005.35 1005.59 1007.35 1009.30 1010.23 1011.69 1012.07 1011.85 1012.03 1011.92 1012.25 1013.51 1013.71 1013.73 1013.83 1013.30 1013.43 1013.24 1013.44 1013.56 1014.25 1015.18 1016.25 1016.80 1017.34 1018.56 1020.10 1020.75 1021.36 1021.62 1021.65 1021.61 1021.87 1022.31 1022.81
997.57 998.16 998.65 998.93 999.01 998.88 998.99 999.41 1000.10 1000.69 1001.20 1001.71 1002.29 1002.70 1002.62 1002.95 1003.31 1003.63 1004.71 1005.83 1005.26 1006.90 1009.41 1012.41 1012.58 1012.72 1013.03 1012.41 1012.31 1012.29 1013.04 1013.84 1013.93 1013.61 1013.36 1013.46 1013.44 1014.31 1014.68 1014.98 1015.40 1016.65 1017.19 1017.98 1019.47 1020.67 1021.50 1022.12 1022.47 1022.63 1022.80 1023.09 1023.41 1023.82
998.40 998.99 999.34 999.61 999.97 1000.21 1000.45 1000.83 1001.36 1001.86 1002.29 1002.54 1002.60 1002.81 1003.25 1003.65 1004.05 1004.24 1005.31 1006.57 1006.63 1006.75 1009.62 1012.13 1012.97 1013.69 1013.37 1013.02 1012.99 1013.23 1013.43 1013.52 1013.47 1013.46 1013.54 1013.70 1014.21 1014.71 1015.40 1015.78 1016.39 1017.21 1017.54 1018.09 1018.77 1020.25 1021.04 1022.15 1022.98 1023.44 1023.58 1023.90 1024.30 1024.61
999.30 999.84 1000.26 1000.67 1000.88 1001.29 1001.68 1002.03 1002.37 1002.75 1003.08 1003.38 1003.70 1003.97 1004.25 1004.41 1004.46 1004.20 1006.18 1007.60 1007.36 1007.31 1009.38 1011.88 1014.09 1014.07 1013.98 1013.81 1013.78 1013.89 1013.97 1013.99 1013.67 1013.44 1013.92 1014.40 1015.05 1015.03 1015.39 1016.17 1017.40 1018.04 1018.43 1018.67 1019.64 1020.73 1021.49 1022.57 1023.42 1023.90 1024.18 1024.62 1025.14 1025.46
1000.26 1000.80 1001.23 1001.69 1002.15 1002.51 1002.71 1003.08 1003.45 1003.73 1003.94 1004.17 1004.37 1004.62 1004.83 1004.87 1005.17 1006.69 1008.29 1008.74 1008.55 1008.23 1009.58 1011.94 1013.62 1014.46 1014.41 1014.22 1014.46 1014.42 1014.48 1014.40 1013.93 1014.07 1014.29 1014.35 1014.95 1015.35 1015.81 1016.44 1017.56 1018.45 1018.85 1019.35 1020.21 1021.19 1022.27 1022.95 1023.41 1024.20 1024.73 1025.40 1025.92 1026.33
1001.19 1001.63 1002.02 1002.47 1002.87 1003.28 1003.73 1004.07 1004.37 1004.57 1004.86 1005.09 1005.32 1005.57 1005.98 1006.23 1006.97 1008.06 1009.03 1008.97 1008.74 1008.89 1009.80 1011.59 1013.44 1014.26 1014.53 1014.21 1014.55 1014.99 1014.57 1014.49 1014.72 1014.69 1014.88 1014.59 1015.36 1015.76 1016.23 1017.07 1017.75 1018.54 1019.23 1019.79 1020.33 1020.89 1021.33 1022.64 1023.64 1024.46 1025.12 1025.62 1026.08 1026.68
1002.13 1002.51 1003.02 1003.37 1003.74 1004.37 1004.68 1005.01 1005.33 1005.59 1005.83 1005.83 1006.11 1006.41 1006.66 1007.64 1008.63 1009.48 1009.68 1009.39 1009.19 1009.75 1010.53 1011.64 1012.24 1013.48 1014.37 1014.64 1014.89 1015.03 1014.91 1014.79 1015.43 1014.81 1014.80 1015.06 1015.57 1015.95 1016.25 1017.06 1017.70 1018.47 1018.91 1019.86 1020.77 1021.33 1022.12 1022.84 1023.77 1024.59 1025.24 1025.86 1026.49 1027.39
1003.04 1003.42 1003.83 1004.31 1004.77 1005.30 1005.64 1005.95 1006.27 1006.29 1006.32 1006.45 1006.61 1007.21 1009.11 1009.94 1010.23 1009.68 1009.65 1009.55 1010.11 1010.86 1011.33 1012.16 1012.69 1013.38 1013.90 1014.37 1014.79 1015.05 1015.10 1014.85 1014.73 1015.11 1015.34 1015.33 1015.60 1016.71 1016.89 1017.23 1017.86 1018.61 1019.37 1020.11 1020.76 1021.56 1022.27 1023.09 1024.00 1024.96 1025.73 1026.53 1027.29 1028.15
1004.01 1004.44 1004.88 1005.32 1005.74 1006.14 1006.45 1006.79 1007.03 1007.12 1007.01 1007.47 1008.45 1009.38 1010.25 1010.21 1009.82 1010.09 1010.79 1010.96 1011.39 1011.88 1012.23 1013.05 1012.85 1013.35 1014.55 1014.07 1014.51 1015.20 1014.89 1015.04 1014.74 1015.27 1015.24 1015.53 1015.74 1016.82 1017.88 1017.99 1018.44 1019.05 1019.85 1020.34 1020.83 1021.49 1022.29 1023.09 1024.21 1025.35 1026.43 1027.32 1028.10 1028.89
1005.04 1005.49 1005.93 1006.34 1006.80 1007.29 1007.54 1007.55 1007.62 1007.71 1008.04 1008.11 1008.56 1009.99 1010.31 1010.36 1010.51 1010.93 1011.79 1012.15 1011.91 1012.43 1013.13 1013.20 1013.55 1014.05 1014.67 1014.59 1014.64 1015.31 1015.09 1015.36 1015.16 1015.85 1015.67 1015.43 1016.24 1017.33 1018.31 1019.05 1019.47 1019.99 1020.66 1021.31 1021.73 1022.37 1023.14 1023.93 1024.82 1025.85 1026.94 1027.93 1028.81 1029.62
1006.11 1006.53 1006.98 1007.57 1007.88 1007.96 1008.09 1008.28 1008.40 1008.59 1008.68 1008.77 1009.09 1010.29 1010.39 1011.20 1011.33 1011.62 1012.18 1012.53 1012.61 1012.80 1013.15 1013.30 1013.97 1014.10 1014.67 1014.92 1015.25 1015.11 1015.18 1015.43 1016.06 1015.95 1015.38 1015.58 1016.97 1017.95 1018.85 1019.77 1020.65 1021.36 1021.82 1022.37 1023.05 1023.69 1024.37 1025.11 1025.89 1026.88 1027.99 1028.98 1029.73 1030.44
1007.15 1007.57 1007.99 1008.25 1008.53 1008.85 1008.97 1008.87 1008.97 1008.88 1008.99 1009.67 1010.38 1011.33 1011.63 1011.98 1012.22 1012.38 1012.39 1012.41 1013.11 1012.92 1013.06 1013.54 1014.03 1014.05 1014.90 1015.12 1015.37 1015.17 1015.86 1015.76 1015.69 1015.53 1015.33 1016.19 1017.70 1018.74 1019.75 1020.76 1021.64 1022.53 1023.23 1023.77 1024.46 1025.17 1025.86 1026.57 1027.44 1028.35 1028.93 1029.55 1030.01 1030.52
1008.13 1008.47 1008.83 1009.31 1009.45 1009.55 1009.60 1009.53 1009.55 1009.44 1010.15 1010.98 1011.36 1012.17 1012.59 1013.00 1012.94 1013.18 1013.24 1013.13 1013.42 1013.29 1013.24 1013.55 1013.98 1014.17 1014.81 1015.13 1015.34 1015.53 1015.92 1015.55 1015.49 1015.47 1016.18 1017.30 1018.52 1019.63 1020.71 1021.63 1022.61 1023.52 1024.30 1024.87 1025.50 1026.18 1026.89 1027.54 1028.13 1028.89 1029.53 1029.84 1030.24 1030.84
1009.08 1009.48 1010.07 1010.09 1010.04 1010.05 1009.93 1009.85 1009.99 1010.53 1011.46 1012.09 1012.84 1013.16 1013.33 1013.00 1013.29 1013.50 1013.52 1013.62 1013.85 1013.60 1013.44 1013.39 1013.80 1014.21 1014.71 1014.88 1015.07 1015.16 1015.21 1015.37 1015.86 1016.70 1017.69 1018.58 1019.49 1020.52 1021.47 1022.47 1023.43 1024.25 1024.91 1025.58 1026.26 1026.88 1027.49 1028.05 1028.47 1028.99 1029.70 1030.04 1030.45 1030.77
1009.75 1010.29 1010.68 1010.65 1010.65 1010.58 1010.46 1010.52 1010.92 1012.02 1012.67 1013.16 1013.85 1014.03 1013.84 1013.92 1014.02 1013.93 1014.03 1014.14 1014.31 1013.78 1013.53 1013.45 1013.69 1014.41 1014.85 1014.81 1015.00 1015.20 1015.69 1016.45 1017.26 1018.10 1018.85 1019.34 1020.21 1021.24 1022.19 1023.17 1024.12 1024.82 1025.45 1026.07 1026.72 1027.31 1027.85 1028.33 1028.73 1029.02 1029.32 1029.73 1030.09 1030.29
1010.55 1010.99 1011.12 1011.17 1010.98 1010.98 1011.42 1011.74 1012.25 1013.12 1014.10 1014.53 1014.40 1014.91 1014.77 1014.67 1014.53 1014.52 1014.59 1014.53 1014.13 1013.73 1013.59 1013.67 1013.97 1014.31 1014.51 1014.74 1015.06 1015.79 1016.67 1017.70 1018.53 1019.13 1019.76 1020.48 1021.15 1022.03 1022.73 1023.51 1024.45 1025.09 1025.73 1026.39 1026.93 1027.46 1027.93 1028.24 1028.32 1028.41 1028.63 1029.03 1029.34 1029.59
1011.45 1011.72 1011.80 1011.63 1011.50 1011.66 1012.39 1013.27 1013.61 1014.19 1015.07 1015.31 1015.49 1015.45 1015.25 1015.17 1015.21 1015.13 1014.93 1014.84 1014.44 1014.09 1013.88 1014.01 1014.12 1014.32 1014.83 1015.35 1015.69 1016.49 1017.18 1017.83 1018.70 1019.79 1020.75 1021.53 1021.94 1022.61 1023.26 1024.02 1024.68 1025.25 1025.84 1026.37 1026.75 1026.97 1027.36 1027.76 1027.61 1027.87 1028.19 1028.58 1028.57 1029.07
1012.21 1012.43 1012.40 1012.27 1011.97 1012.45 1013.51 1014.44 1014.57 1014.70 1015.44 1015.97 1015.89 1015.78 1015.69 1015.61 1015.68 1015.59 1015.37 1015.22 1014.99 1014.39 1014.22 1014.31 1014.69 1015.31 1015.64 1016.19 1016.57 1016.91 1017.43 1018.21 1018.85 1019.70 1020.83 1021.79 1022.48 1023.07 1023.57 1024.00 1024.45 1025.20 1025.79 1026.33 1026.65 1026.93 1027.18 1027.52 1027.78 1027.97 1028.19 1028.52 1028.73 1029.17
1012.70 1013.07 1012.95 1012.69 1013.18 1013.58 1014.53 1014.98 1015.24 1015.73 1015.94 1015.93 1016.18 1015.83 1015.87 1015.91 1015.74 1015.70 1015.54 1015.57 1015.41 1014.89 1014.82 1015.19 1015.72 1016.49 1017.07 1017.37 1017.57 1017.67 1018.09 1018.45 1018.66 1019.06 1019.85 1021.31 1022.36 1022.81 1023.49 1023.95 1024.61 1024.93 1025.32 1025.79 1026.16 1026.66 1027.02 1026.93 1027.43 1028.00 1028.54 1028.99 1029.45 1029.87
1013.84 1013.74 1013.66 1013.85 1014.23 1014.79 1015.35 1015.84 1015.88 1016.27 1016.29 1016.45 1016.21 1016.17 1016.10 1016.05 1015.97 1015.90 1015.89 1015.53 1015.45 1015.60 1015.90 1015.96 1016.35 1016.99 1017.37 1017.73 1017.98 1018.20 1018.65 1019.05 1019.55 1020.03 1020.56 1021.27 1021.92 1022.51 1023.05 1023.66 1024.21 1024.65 1025.05 1025.47 1025.81 1026.33 1026.76 1027.33 1027.96 1028.43 1028.95 1029.63 1030.03 1030.47
1014.17 1014.16 1014.53 1014.85 1015.23 1015.73 1016.71 1016.40 1016.10 1016.25 1016.36 1016.60 1016.59 1016.40 1016.41 1016.35 1016.23 1016.23 1015.94 1015.80 1016.29 1017.07 1017.10 1017.01 1017.22 1017.43 1017.84 1018.41 1018.70 1018.94 1019.20 1019.34 1019.75 1020.30 1020.96 1021.27 1021.83 1022.41 1023.01 1023.68 1024.09 1024.50 1024.90 1025.48 1025.93 1026.44 1027.11 1028.07 1028.57 1028.99 1029.59 1029.91 1030.24 1030.78
1014.89 1015.52 1015.93 1016.23 1016.32 1016.82 1016.87 1016.69 1016.59 1016.55 1016.64 1016.63 1016.63 1016.63 1016.71 1016.69 1016.63 1016.29 1016.15 1016.40 1017.15 1017.53 1017.55 1017.72 1017.76 1018.09 1018.52 1018.82 1018.99 1019.46 1019.84 1019.97 1020.41 1020.96 1021.43 1021.73 1022.13 1022.76 1023.29 1023.81 1024.31 1024.67 1024.92 1025.67 1026.31 1027.02 1027.78 1028.45 1029.18 1029.56 1030.04 1030.41 1030.82 1031.17
1015.79 1017.39 1017.31 1017.32 1017.33 1017.17 1017.07 1017.09 1017.01 1016.76 1016.72 1016.83 1016.85 1016.85 1016.90 1017.08 1016.81 1016.67 1016.68 1017.18 1017.73 1018.14 1018.42 1018.37 1018.32 1018.26 1018.35 1018.97 1019.56 1020.11 1020.58 1020.53 1020.70 1021.25 1021.93 1022.02 1022.49 1023.31 1023.86 1024.41 1025.01 1025.58 1025.91 1026.24 1026.87 1027.56 1028.33 1028.98 1029.53 1030.05 1030.48 1030.85 1031.32 1031.86
1016.77 1017.82 1017.93 1017.64 1017.67 1017.34 1017.29 1017.23 1017.28 1017.08 1016.93 1016.85 1016.97 1017.27 1017.34 1017.22 1017.33 1017.10 1017.55 1018.22 1018.59 1018.96 1019.14 1019.01 1018.79 1018.86 1019.07 1019.43 1019.81 1020.34 1020.82 1021.11 1021.34 1021.80 1022.60 1022.84 1023.03 1023.29 1023.88 1024.57 1025.33 1026.25 1026.66 1026.63 1027.19 1027.84 1028.65 1029.33 1029.95 1030.56 1031.26 1031.89 1032.37 1032.51
1017.37 1017.90 1018.13 1018.15 1017.84 1017.72 1017.60 1017.67 1017.58 1017.35 1017.08 1016.90 1017.03 1017.36 1017.59 1017.55 1017.47 1018.08 1018.81 1019.34 1019.49 1019.87 1019.99 1019.91 1019.67 1019.45 1019.46 1020.18 1020.91 1021.41 1021.70 1021.95 1022.15 1022.66 1023.39 1023.91 1024.26 1024.27 1024.33 1024.77 1025.44 1026.39 1027.08 1027.43 1027.83 1028.25 1028.98 1029.74 1030.48 1031.20 1032.01 1032.72 1033.32 1033.61
1017.51 1017.82 1017.91 1018.23 1018.11 1018.12 1017.96 1017.80 1017.65 1017.45 1017.29 1017.50 1017.64 1017.61 1017.70 1017.79 1018.45 1019.21 1019.75 1020.35 1020.51 1020.60 1020.61 1020.75 1020.84 1020.60 1020.65 1021.23 1021.73 1022.21 1022.88 1023.44 1023.80 1024.06 1024.49 1025.13 1025.65 1025.87 1026.11 1026.49 1027.15 1027.61 1027.89 1028.23 1028.79 1029.29 1029.87 1030.55 1031.31 1031.97 1032.69 1033.45 1034.32 1034.79
1017.74 1017.88 1018.07 1018.32 1018.41 1018.37 1018.17 1017.95 1017.80 1018.03 1018.33 1018.22 1018.20 1018.43 1018.72 1019.25 1020.05 1020.30 1020.72 1021.03 1021.14 1020.91 1020.84 1021.07 1021.57 1021.75 1021.99 1022.31 1022.65 1022.89 1023.21 1023.34 1023.39 1023.76 1024.17 1025.02 1025.91 1026.98 1027.30 1027.62 1028.13 1028.54 1029.08 1029.71 1030.41 1030.71 1031.33 1031.86 1032.67 1033.31 1033.91 1034.49 1035.05 1035.36
1017.71 1017.94 1017.92 1018.28 1018.37 1018.07 1018.02 1018.33 1018.51 1019.00 1019.23 1019.31 1019.37 1019.61 1019.93 1020.31 1021.00 1021.71 1021.59 1021.41 1021.20 1021.03 1021.13 1021.39 1021.77 1021.85 1022.14 1022.41 1022.99 1023.58 1023.96 1023.98 1023.93 1023.81 1024.03 1024.76 1025.71 1027.19 1027.80 1028.29 1028.73 1029.22 1029.68 1030.32 1031.16 1032.08 1032.84 1033.40 1033.95 1034.54 1034.85 1035.07 1035.17 1035.40
1017.80 1017.90 1017.96 1018.05 1018.12 1018.51 1018.90 1019.29 1019.65 1019.79 1019.81 1019.84 1020.25 1020.12 1020.18 1020.79 1021.29 1021.95 1022.11 1022.16 1021.95 1021.71 1021.71 1021.87 1022.17 1022.33 1022.49 1022.75 1023.02 1023.46 1024.22 1024.87 1025.01 1024.96 1025.02 1025.73 1026.73 1027.54 1028.28 1028.85 1029.30 1029.76 1030.47 1031.07 1031.71 1032.34 1032.99 1033.48 1034.00 1034.54 1035.06 1035.47 1035.89 1036.05
1018.02 1017.93 1018.06 1018.25 1018.63 1019.25 1019.51 1019.38 1019.53 1019.65 1019.94 1020.04 1020.15 1020.67 1020.83 1021.02 1021.12 1021.99 1022.85 1022.67 1022.18 1021.98 1022.22 1022.18 1022.37 1022.74 1023.09 1023.52 1024.00 1024.30 1024.53 1025.34 1025.75 1026.05 1026.28 1026.81 1027.63 1028.45 1029.10 1029.63 1030.07 1030.47 1031.01 1031.67 1032.31 1032.92 1033.45 1033.91 1034.44 1035.00 1035.53 1035.97 1036.37 1036.68
1018.60 1018.61 1018.72 1018.77 1019.05 1019.25 1019.49 1019.54 1019.59 1019.76 1020.13 1020.15 1020.42 1020.92 1020.97 1021.18 1021.55 1022.57 1023.31 1023.47 1023.25 1022.79 1022.83 1023.26 1023.65 1024.05 1024.42 1024.67 1025.11 1025.63 1026.02 1026.52 1026.95 1027.38 1027.87 1028.32 1028.75 1029.27 1029.77 1030.28 1030.78 1031.32 1031.82 1032.46 1033.13 1033.73 1034.21 1034.68 1035.12 1035.61 1036.07 1036.50 1036.85 1037.09
Wind_Speed
16 16 18 19 20 20 26 26 26 29 29 26 25 24 20 19 12 5 5 2 5 7 6 5 6 7 8 9 9 9 7 3 4 6 4 3 3 3 4 2 2 4 3 4 4 5 5 8 3 4 8 9 9 9
18 16 20 21 22 23 26 28 24 23 23 22 19 18 16 15 14 7 6 4 2 8 8 9 11 8 5 7 9 6 3 7 4 3 3 3 4 4 6 5 3 4 3 1 4 5 6 5 8 6 9 10 9 9
19 23 23 21 20 20 28 28 28 23 21 20 18 15 11 12 13 12 9 10 12 12 12 9 10 10 11 7 3 5 2 4 4 2 3 3 4 3 5 3 5 3 1 3 6 5 7 8 9 10 9 10 10 9
26 26 25 21 20 20 25 26 23 21 18 18 19 18 19 21 18 11 7 2 5 7 8 6 3 6 7 8 10 8 11 6 6 3 3 3 3 2 2 4 1 1 4 6 5 8 8 7 8 9 11 11 11 9
26 25 21 22 23 21 22 23 22 21 20 20 22 23 24 25 23 16 10 7 5 4 7 7 10 7 7 11 14 11 9 7 4 3 3 3 3 4 3 3 3 1 4 2 3 10 3 10 9 9 10 10 9 10
26 23 23 20 20 22 18 21 23 24 23 20 19 17 13 9 2 7 7 8 8 9 9 6 2 3 6 10 11 10 5 4 2 3 3 3 3 2 3 3 4 4 3 4 6 7 10 11 10 11 11 10 10 9
24 23 24 24 23 17 21 21 21 21 23 24 24 23 23 23 11 7 4 4 4 2 6 7 5 3 3 3 3 4 5 3 3 3 2 3 4 2 2 2 7 6 7 12 15 16 12 13 8 11 12 12 11 10
23 21 21 22 23 20 20 20 19 21 21 20 20 20 18 18 12 7 8 7 2 5 4 5 5 5 2 4 3 2 2 1 3 2 2 3 5 1 2 7 10 11 12 12 7 2 11 14 13 12 10 9 9 9
20 19 20 22 23 21 20 20 19 17 16 16 14 9 6 8 5 3 8 4 5 5 5 3 8 6 4 3 2 3 1 2 1 2 2 3 3 3 7 13 13 13 7 11 10 12 14 13 12 11 9 7 9 9
21 20 20 21 20 19 20 19 17 13 11 10 8 6 4 3 7 6 1 4 5 4 3 4 1 6 6 4 3 3 0 2 3 3 4 2 2 5 6 11 11 10 12 14 13 11 11 11 10 9 7 7 9 8
22 22 21 21 20 18 17 14 10 6 6 4 4 4 2 4 1 4 4 4 2 4 3 3 6 9 1 3 4 1 2 1 3 4 2 3 3 6 8 8 8 10 12 8 4 7 7 10 10 10 10 9 9 9
22 20 21 19 19 16 13 10 7 4 3 6 9 5 1 3 3 5 3 2 2 4 3 7 6 5 3 0 3 2 2 2 3 3 3 3 4 10 12 10 10 10 10 7 6 9 9 11 10 10 10 10 9 9
21 20 21 19 16 15 17 18 14 9 2 2 4 4 2 4 5 2 5 3 4 4 5 7 6 3 4 2 2 2 2 3 3 3 3 2 7 10 12 11 10 9 10 10 10 10 12 12 11 11 11 9 9 8
20 21 18 19 19 15 12 12 9 5 5 5 4 6 4 3 3 2 2 4 3 7 9 7 4 3 2 2 1 3 3 3 4 3 2 4 10 12 11 10 11 10 9 11 11 10 11 10 10 9 9 8 8 7
20 18 19 16 14 12 11 11 7 4 4 5 3 5 4 2 3 3 2 4 4 7 6 6 4 2 2 3 1 4 4 4 3 1 3 4 11 13 11 11 10 10 9 9 9 9 10 10 9 9 6 6 6 6
19 16 11 12 12 11 8 6 5 3 3 4 5 3 2 4 4 3 4 7 2 2 2 2 3 3 3 3 3 3 4 3 2 2 3 6 11 11 11 10 9 9 9 9 8 9 9 9 9 9 7 5 5 5
10 4 9 10 9 11 13 4 3 6 4 4 4 4 4 4 3 3 2 4 2 0 2 2 3 3 3 2 3 1 1 2 3 3 2 5 11 11 10 10 9 9 10 10 10 9 9 8 8 8 7 7 6 6
8 9 10 9 5 4 3 5 4 5 6 4 3 3 2 2 2 3 3 3 1 2 0 3 3 3 2 3 3 2 2 3 3 3 4 6 9 9 9 11 10 10 10 10 10 10 9 8 8 6 6 6 6 5
10 9 11 11 6 3 4 5 4 5 5 2 2 2 2 2 3 2 2 2 3 2 3 1 2 2 2 1 2 2 3 3 4 4 4 4 7 9 10 10 10 9 10 11 10 7 7 8 5 5 4 4 2 3
16 14 10 12 6 3 4 4 2 4 3 3 2 2 2 3 2 2 2 2 1 1 1 1 2 2 2 2 2 3 4 6 7 7 6 5 6 9 9 9 8 10 9 9 7 7 7 6 5 4 3 2 3 2
6 6 9 5 4 6 4 3 4 3 2 3 1 2 3 1 2 2 1 1 1 0 1 2 3 4 4 3 2 3 5 6 5 3 6 8 7 7 8 7 9 8 8 7 7 7 6 5 4 4 5 4 3 3
2 6 3 4 4 4 4 5 3 2 2 2 1 2 2 1 1 1 1 1 1 3 3 2 3 4 4 3 3 3 7 7 6 6 7 11 9 8 8 8 8 8 7 7 6 7 6 5 4 5 5 5 3 3
2 3 3 5 4 5 3 3 3 2 3 2 1 1 1 0 1 2 1 0 3 2 2 2 4 5 7 6 6 7 6 6 5 5 6 5 7 7 7 8 7 7 7 6 5 5 5 6 5 5 5 4 3 3
4 5 5 4 5 3 1 3 1 2 1 1 2 1 0 1 2 2 2 1 2 1 2 3 4 5 5 5 4 4 4 4 6 5 5 7 7 7 7 7 6 5 4 6 5 5 6 6 6 5 4 4 3 3
3 5 3 4 2 2 3 2 2 1 2 1 2 1 1 1 2 2 2 2 2 2 2 1 2 1 3 4 4 4 3 3 4 6 5 5 8 7 7 6 5 4 4 6 6 7 6 5 5 5 5 4 4 5
4 3 2 2 2 0 2 3 2 2 2 3 2 2 1 1 2 3 1 1 2 2 2 1 1 2 3 2 5 4 4 3 5 6 6 6 6 7 8 7 6 4 2 3 6 8 7 6 6 7 6 6 5 4
3 2 1 1 1 1 2 1 1 1 2 3 2 3 3 3 3 2 2 2 2 3 3 2 2 2 2 5 5 5 5 4 4 6 7 6 5 4 3 5 6 6 5 5 5 6 8 7 7 6 7 6 5 5
1 3 3 4 2 0 1 1 2 3 2 1 2 4 3 2 2 2 2 2 3 2 2 3 4 3 4 5 6 6 7 7 9 10 9 9 7 6 7 7 8 11 8 7 7 7 7 7 7 7 7 6 5 4
3 3 4 4 3 3 4 4 3 1 1 2 2 1 0 2 2 1 2 2 3 1 1 3 4 5 6 6 5 5 7 7 9 12 10 7 5 4 5 7 7 8 8 10 13 11 11 9 8 8 8 7 5 4
3 5 3 4 4 5 2 1 1 3 1 2 1 1 2 1 1 1 2 2 2 1 2 2 4 4 5 6 7 6 3 2 2 2 5 6 6 8 7 8 8 8 8 9 10 11 12 10 9 7 6 5 4 4
3 4 3 3 2 2 2 3 2 1 1 1 0 3 1 1 2 1 1 2 2 2 3 4 4 3 5 6 7 7 5 3 4 6 7 9 10 9 8 8 7 7 8 8 7 7 7 6 6 6 6 6 5 3
3 4 3 4 2 2 2 2 1 2 0 2 2 1 2 3 3 3 3 3 3 3 1 3 4 4 4 5 6 6 10 7 7 8 12 10 10 10 9 7 7 7 8 8 7 7 7 7 6 6 6 6 5 5
1 1 1 1 2 3 2 3 1 1 2 2 1 1 1 2 3 3 2 3 3 3 3 5 6 6 8 8 9 9 10 10 13 15 15 15 13 11 8 7 7 8 9 8 8 8 8 9 7 7 7 5 5 4
Wind_Direction
143 138 132 118 101 99 110 102 97 100 100 105 102 108 116 122 137 122 109 24 106 84 97 105 122 141 140 154 152 137 137 200 177 196 199 150 179 123 159 126 210 223 223 213 237 239 174 2 175 275 104 111 108 92
133 124 119 118 119 115 113 120 120 100 104 96 92 98 95 83 89 110 84 43 103 82 96 87 81 52 35 95 131 165 52 137 145 159 203 130 154 168 182 158 154 185 329 30 339 48 64 25 60 92 115 115 104 102
136 123 113 117 129 126 128 123 124 119 113 106 103 110 116 110 97 114 108 129 100 107 88 72 54 43 46 44 42 130 148 128 145 352 123 92 142 221 176 121 134 124 134 111 181 124 101 90 78 88 99 103 99 100
119 119 120 119 109 94 94 103 111 106 105 105 108 110 97 90 84 91 96 28 95 93 90 83 43 40 357 78 84 84 114 104 120 166 101 124 125 275 104 98 162 81 173 140 82 120 115 98 99 103 103 103 104 95
118 116 109 104 109 106 93 99 105 104 104 102 98 95 98 98 102 88 74 41 37 93 120 110 102 39 58 78 84 93 110 126 139 128 121 94 102 144 108 134 150 192 145 217 82 153 80 130 125 127 119 115 115 113
117 117 120 113 102 104 96 96 97 97 93 90 94 94 90 82 84 88 62 39 38 94 116 103 98 77 79 90 82 76 74 65 78 79 83 94 73 277 151 166 96 87 108 110 126 119 111 115 119 132 126 117 111 110
117 116 118 120 116 120 100 97 97 94 91 88 84 82 81 71 60 53 79 92 358 25 97 111 114 91 110 92 63 76 58 64 33 93 85 119 124 249 148 166 132 117 123 114 118 117 116 145 141 132 120 114 110 104
117 120 117 114 115 113 107 103 100 100 96 90 86 80 79 94 105 62 32 24 27 86 74 109 100 131 216 140 116 353 102 96 37 77 145 147 143 102 156 137 133 133 127 134 135 106 132 123 129 127 128 131 121 112
122 120 119 114 108 110 108 107 107 101 97 83 77 81 66 39 52 64 332 358 48 54 99 100 145 133 143 102 96 134 315 117 86 122 121 210 142 208 157 162 157 156 158 134 121 120 132 136 136 139 136 137 128 127
115 115 117 113 110 111 109 102 92 77 70 57 39 40 67 43 322 278 20 39 40 42 41 80 143 116 165 163 111 148 246 127 157 87 139 225 168 116 157 161 160 155 140 143 135 141 145 146 148 146 135 129 133 131
112 111 114 110 105 102 99 90 59 59 56 47 65 59 94 302 37 38 64 40 55 84 61 72 129 132 89 150 117 333 128 158 182 119 243 184 199 162 156 150 149 147 156 153 121 141 150 152 146 140 133 127 126 128
107 108 109 104 101 98 89 56 32 62 46 79 100 107 110 37 65 74 56 93 51 102 125 139 115 99 108 126 109 176 116 206 128 144 227 224 108 146 145 144 139 142 144 132 123 130 131 132 134 132 130 124 117 109
106 106 104 100 94 83 87 81 71 93 107 84 66 70 0 17 71 84 145 127 133 151 150 151 119 100 135 89 97 146 143 96 146 200 227 56 135 157 149 139 130 127 124 118 115 117 120 117 116 125 121 116 126 120
107 109 102 97 92 84 72 57 41 43 52 52 49 68 24 67 71 59 87 104 89 128 131 117 99 91 107 110 174 121 78 199 194 217 200 132 161 159 150 140 133 130 122 124 122 118 117 117 112 109 117 130 132 136
109 101 101 97 85 74 65 56 43 42 55 62 34 64 67 70 72 84 99 123 103 128 126 117 98 100 100 118 141 126 181 194 228 211 77 105 155 158 151 147 140 139 134 129 130 126 122 123 122 118 124 135 130 133
103 92 92 88 68 48 38 45 34 62 62 62 49 100 59 105 88 84 79 104 95 100 109 82 113 99 95 129 162 186 179 200 100 66 68 136 154 153 146 142 138 137 137 134 129 133 132 134 143 139 142 146 156 174
72 71 111 90 75 59 35 60 46 49 57 47 60 20 32 65 56 56 82 119 142 201 85 126 96 73 125 149 152 191 206 53 64 84 100 144 158 149 138 131 133 137 138 137 135 141 139 137 131 141 155 173 190 191
95 103 76 45 26 33 43 29 64 58 61 40 73 40 27 11 38 65 80 114 284 69 55 64 133 148 151 131 141 129 116 109 73 78 112 134 134 138 143 140 141 144 141 142 143 142 142 148 162 171 162 166 186 194
100 81 48 32 39 63 48 46 7 79 53 39 73 21 10 46 53 32 53 48 33 35 121 140 103 90 97 91 86 121 142 151 138 125 109 112 135 135 134 133 137 143 145 150 156 159 161 179 183 162 159 170 193 158
71 48 38 32 32 65 74 46 359 69 64 46 52 60 37 30 14 11 31 54 13 338 78 50 56 67 66 90 87 101 121 134 140 133 127 133 136 142 146 151 151 147 148 153 162 161 160 172 181 179 178 174 182 162
55 358 20 31 45 48 68 37 67 50 72 57 24 17 67 48 55 38 91 122 148 178 130 68 95 98 64 82 80 103 132 158 155 150 155 153 158 153 151 147 150 159 160 166 167 165 192 185 148 151 154 133 111 101
26 358 44 28 60 56 66 20 65 83 52 54 89 15 41 42 37 65 340 224 157 60 36 45 120 143 148 109 104 108 130 120 101 95 91 130 155 161 162 159 163 164 166 169 171 168 175 149 141 141 137 128 136 92
84 27 46 24 72 44 62 311 53 47 78 106 124 111 95 143 8 310 245 139 82 46 4 50 90 99 103 101 106 107 125 131 119 114 140 147 147 149 151 159 164 164 162 161 162 158 140 123 129 128 123 133 135 123
32 44 35 37 25 77 12 50 27 87 98 148 161 144 91 19 337 255 246 125 54 18 73 117 136 115 109 121 118 117 110 113 112 113 134 146 145 147 151 150 154 155 151 137 144 132 139 122 133 129 126 128 104 102
64 22 1 52 42 71 74 87 11 116 104 160 172 162 118 262 254 247 245 112 54 54 41 140 136 99 119 106 117 110 122 142 137 128 134 147 128 130 132 129 117 106 130 137 141 138 130 132 129 128 120 108 106 93
73 20 353 89 103 324 136 127 181 157 164 165 147 95 230 239 250 240 115 95 62 40 30 51 131 125 106 92 140 143 131 127 131 121 121 145 153 155 154 155 153 135 127 132 142 141 139 139 134 130 116 103 79 100
134 148 93 344 36 132 118 87 119 227 220 202 157 166 191 229 244 103 125 55 28 24 348 316 314 355 104 121 101 91 90 80 71 95 102 86 67 55 136 155 154 116 130 121 125 140 142 139 132 122 114 99 78 64
102 170 155 166 147 104 177 237 210 224 216 119 164 200 221 220 54 86 63 64 7 15 50 49 28 41 93 104 113 117 100 104 106 107 100 78 59 59 72 81 87 96 91 91 102 108 114 118 120 121 117 111 102 66
175 156 143 150 171 207 226 211 223 135 76 216 273 274 287 57 55 90 83 5 322 268 128 114 87 100 100 99 98 110 134 146 149 154 149 134 134 96 95 105 103 99 99 92 83 86 92 95 99 102 100 101 99 91
208 179 175 166 193 215 164 244 117 101 55 30 54 152 192 172 95 358 285 249 226 210 113 118 141 157 145 143 132 123 85 53 17 153 159 158 132 128 129 122 117 115 116 111 106 102 100 103 108 104 104 109 106 100
141 184 194 195 228 76 48 89 104 119 125 157 165 264 316 51 162 112 357 334 285 193 158 149 152 155 155 154 154 146 131 67 51 63 87 108 122 124 124 122 120 117 119 123 123 121 122 109 105 108 103 98 92 79
186 200 199 208 180 101 179 215 205 241 240 244 191 226 194 218 229 125 29 316 206 189 135 161 155 145 125 98 74 65 85 105 103 110 115 114 113 114 115 114 116 116 115 111 110 111 112 112 112 111 111 103 90 73
122 126 110 176 183 193 169 212 216 253 222 242 227 289 254 288 272 75 69 18 347 357 103 86 82 83 86 91 99 96 90 89 93 95 96 99 106 109 109 107 107 111 111 107 105 110 109 113 109 105 99 99 90 64